YUNHAI 1-03

Satellite information

Favourite Embed

Satellite Type and Status

PAYLOADIN ORBIT

Key statistics

Satellite YUNHAI 1-03 at a glance.

Uptime

1130

Days in orbit

Revolutions

≈ 14.3

Per day

Orbit

SSO

Sun Synchronous Orbit

Inclination

98.5

Latest

Satellite identification and parameters

Extended collection of information and parameters for YUNHAI 1-03.

Object identification

Identified? True

Debris? False

Object name: YUNHAI 1-03

International designator: 2022-115A

Object number (NORAD): 53877

Object ID (CCSDS): 53877

Country: PEOPLES REPUBLIC OF CHINA (PRC)

Current information (Y/N): Y

RCS size: LARGE

Orbital parameters

Period: 100.517 minutes

Inclination: 98.5461 deg

SMA: 7161.225 km

Apoapsis: 786.688 km

Periapsis: 779.492 km

RAAN: 293.2953 deg

Eccentricy: 0.00050243

Argument of periapsis: 35.966 deg

Mean anomaly: 324.1861 deg

Mean motion: 14.3258955 rev/day

Mean motion (dot): 0.00000479 rev/day2

B* drag term: 0.00019239831 1/REarth

Two-line elements (TLE)

Creation date: Oct. 24, 2025, 2:48 a.m.

Reference frame: TEME

Reference center: EARTH

Epoch: Oct. 23, 2025, 11:34 p.m. UTC

TLE line 0: 0 YUNHAI 1-03

TLE line 1: 1 53877U 22115A 25296.98242372 .00000479 00000-0 19240-3 0 9991

TLE line 2: 2 53877 98.5461 293.2953 0005024 35.9660 324.1861 14.32589550161698

Live tracking on map

Real-time ground track for satellite YUNHAI 1-03.

In-orbit conjunctions

There are no conjunctions computed for YUNHAI 1-03, at the moment. Check back to stay up to date, as we update our databases every day.

Go to all conjunctions

Associated space launch

The Yunhai-1 satellite is designed for detecting environmental elements in the atmosphere and ocean, the space environment, disaster prevention and reduction, and scientific experimentation. It is made by the Shanghai Institute of Spaceflight Technology.

YUNHAI 1-03 was lifted into orbit during the mission ‘Long March 2D | Yunhai-1-03’, on board a Long March 2D space rocket.

The launch took place on Sept. 20, 2022, 11:15 p.m. from Launch Area 4 (SLS-2 / 603).

For more information about the launch, click the button.

Launch to space Long March 2D | Yunhai-1-03
Long March 2D | Yunhai-1-03

Agency: N/A

Status: Launch Successful

Launch date: Sept. 20, 2022, 11:15 p.m. UTC

Rocket: Long March 2D

Launch pad: Launch Area 4 (SLS-2 / 603)

Location: Jiuquan Satellite Launch Center, People's Republic of China

...

Latest news about this satellite

There are no fresh news available about this satellite. Check back as we update our databases every day.


Newsletter sign-up

Weekly statistics, charts and insights to help you stay on top of the space industry.